Wind_Speed
51 52 52 51 50 49 47 46 44 42 41 41 40 37 34 32 32 32 32 32 33 34 37 40 46 52 60 69 77 83 87 88 88 87 85 80 78 77 75 73 72 71 72
53 54 54 54 52 50 47 45 43 41 39 39 41 41 39 36 34 34 34 35 35 35 36 37 39 43 47 54 63 71 78 82 86 86 86 84 81 79 78 77 75 73 71
56 56 56 54 52 49 46 43 40 38 36 36 38 41 42 41 38 37 37 37 38 38 38 38 38 40 43 46 51 58 66 72 77 81 82 83 82 79 77 76 76 76 74
57 57 55 53 51 49 46 43 40 36 33 32 34 38 42 44 42 40 39 40 40 40 40 40 39 40 41 44 48 52 57 62 67 70 73 76 78 77 76 74 74 76 75
58 57 53 51 51 50 48 45 41 37 33 30 30 33 39 44 45 44 42 42 42 42 41 40 39 38 38 38 41 46 50 55 58 61 64 67 70 71 72 70 71 73 74
59 55 51 50 50 51 51 48 44 39 34 30 28 29 33 40 45 46 44 43 43 42 41 40 37 36 34 33 35 41 48 51 53 56 60 63 65 66 67 68 68 70 72
59 54 51 51 52 53 53 52 48 42 36 31 27 26 28 34 40 44 44 43 43 43 41 40 37 35 32 32 34 38 48 50 51 55 56 59 62 64 64 65 66 67 68
58 54 53 53 54 55 55 55 53 47 38 31 27 25 25 29 35 40 43 43 44 44 43 41 39 37 35 36 37 39 47 50 52 55 55 58 60 61 63 64 64 63 64
58 54 54 55 56 56 57 58 56 51 41 32 26 23 23 25 30 36 40 43 45 46 46 44 43 41 41 41 39 41 46 50 52 55 55 54 54 55 57 58 59 59 59
57 56 57 58 58 58 60 61 59 52 40 30 24 21 21 23 27 33 38 42 45 47 48 48 47 46 46 45 43 42 43 46 50 51 52 51 50 50 50 52 52 52 52
58 57 59 60 60 61 64 64 61 50 36 27 21 18 19 21 24 29 35 40 45 48 50 50 50 50 50 50 47 45 43 43 45 47 49 50 50 50 50 50 50 50 50
58 58 60 62 63 64 67 66 60 45 31 22 18 16 16 17 20 25 30 36 42 46 49 51 51 51 52 53 51 48 46 44 43 43 45 47 49 51 52 52 52 51 51
58 59 61 63 64 67 70 68 60 44 28 19 15 13 13 14 16 21 25 31 38 44 49 51 51 52 52 53 53 52 50 47 46 45 45 46 48 50 51 52 52 52 51
58 59 61 63 64 67 71 71 62 47 30 19 13 11 11 12 13 16 20 25 32 40 45 49 50 51 51 52 53 53 52 51 50 49 48 48 48 49 50 51 52 52 52
57 59 61 62 63 66 69 73 66 54 38 24 14 10 10 11 12 13 15 19 25 32 40 46 48 50 50 51 51 51 52 52 53 52 52 52 51 51 51 51 51 51 52
57 58 60 62 62 65 68 71 70 61 48 32 21 13 9 9 10 10 11 13 18 24 32 40 46 49 50 51 51 50 50 50 52 55 55 55 55 54 53 53 52 51 51
57 58 61 62 63 63 66 68 69 67 58 44 30 20 13 10 9 9 10 11 13 17 23 32 40 47 49 51 51 51 49 49 50 53 56 57 57 57 56 56 55 54 53
57 58 61 62 63 63 64 65 67 68 65 57 45 31 21 14 10 9 9 10 11 12 16 22 31 40 47 50 51 52 51 50 49 49 52 55 58 58 58 58 57 56 55
56 57 60 61 62 62 63 63 64 65 65 63 58 48 36 25 17 12 9 9 10 11 12 15 21 30 39 47 50 52 53 52 50 49 48 50 53 54 55 57 57 56 55
55 57 59 60 60 61 62 62 62 62 62 62 61 58 52 43 32 22 15 11 9 9 11 13 16 21 29 39 47 51 52 53 53 51 49 48 49 50 51 52 53 53 53
54 55 57 58 58 59 60 61 61 60 60 59 59 58 57 54 48 42 33 23 15 10 9 10 13 16 21 28 38 46 51 53 54 53 52 50 49 49 49 49 50 50 50
53 54 55 55 56 58 59 60 60 60 60 58 57 56 56 55 53 50 47 42 35 25 15 8 8 11 15 20 28 37 46 51 53 54 54 53 52 51 50 49 49 49 49
50 52 53 53 54 55 56 57 59 59 60 59 58 56 55 54 54 53 51 48 45 41 33 23 12 5 7 12 18 26 35 44 51 54 56 56 55 54 53 52 51 50 49
47 48 50 51 52 53 54 55 56 58 59 59 59 57 56 54 53 52 52 51 49 46 43 39 31 19 9 3 8 14 22 31 41 49 54 57 58 58 57 56 54 53 52
43 45 47 48 50 51 52 52 53 55 56 58 58 58 58 56 55 53 51 50 49 48 46 44 41 36 28 18 8 3 9 16 26 37 46 53 57 59 60 60 59 58 56
41 42 43 45 47 49 50 50 51 52 53 55 56 57 58 58 57 55 53 50 48 47 47 45 43 40 37 32 26 17 7 3 11 20 31 41 50 56 60 62 63 62 61
Wind_Direction
333 332 330 328 325 323 318 313 306 296 284 273 264 259 257 254 249 246 242 238 233 230 230 232 235 238 240 242 242 243 243 243 243 242 240 237 237 236 236 236 236 236 237
334 333 332 330 327 324 321 316 310 302 292 279 266 257 252 249 245 241 239 237 235 233 233 233 235 236 238 239 240 240 240 240 241 241 240 239 238 237 236 236 235 235 235
336 335 334 333 332 329 325 320 314 307 297 285 271 259 251 246 242 239 237 236 235 235 236 237 239 240 240 240 240 238 236 235 236 236 237 237 237 237 236 235 235 235 235
338 337 337 337 338 337 333 328 322 315 304 291 276 263 253 246 241 238 235 234 234 235 237 240 242 244 245 246 243 237 231 229 229 229 230 231 232 232 232 232 233 233 233
340 339 339 340 342 342 341 336 329 322 313 300 283 267 255 248 242 238 234 232 232 233 236 239 242 246 248 248 241 232 225 221 219 220 223 225 227 228 228 228 230 232 232
343 343 343 343 344 344 343 340 335 327 318 307 292 274 260 250 243 238 233 231 230 230 233 234 238 242 245 241 231 222 215 211 211 214 217 219 222 222 223 224 226 228 230
346 346 346 345 344 344 343 342 338 331 321 311 298 282 265 253 245 239 232 229 227 227 227 228 231 233 233 226 218 211 209 209 209 211 213 215 218 220 222 223 224 226 228
347 347 347 346 344 343 342 342 339 334 324 312 300 286 269 255 246 239 232 225 224 223 223 223 224 224 221 216 211 207 205 205 206 205 206 209 215 220 222 223 225 226 228
349 348 347 346 345 343 341 340 338 333 325 313 300 286 271 257 247 239 232 224 220 220 220 219 219 219 216 213 212 209 206 205 205 203 204 207 212 216 219 221 222 224 226
351 350 350 348 347 345 343 340 338 333 324 312 299 284 271 258 247 240 232 224 220 219 218 218 218 218 216 216 215 213 211 210 210 209 209 210 212 213 214 215 217 219 220
353 353 352 351 350 349 346 343 340 335 325 311 298 283 268 257 248 242 235 225 220 219 218 218 217 218 217 217 217 217 216 214 213 212 212 213 212 212 212 212 213 216 218
356 356 355 354 353 352 351 349 347 342 331 314 299 285 269 256 249 243 238 230 222 221 220 218 218 218 218 219 220 219 220 220 217 214 213 213 213 213 213 214 215 217 219
358 358 358 358 357 357 357 357 356 352 343 326 306 287 274 260 251 246 241 235 227 222 221 220 219 219 219 220 221 221 221 221 221 219 217 216 215 214 214 216 217 219 222
1 1 2 2 1 1 2 4 4 3 358 345 323 297 280 268 257 251 246 239 233 226 222 221 221 220 220 221 221 221 222 221 221 221 221 220 219 218 218 218 219 222 225
5 5 5 5 6 6 7 9 10 11 9 3 349 322 293 278 268 261 254 246 238 232 226 222 222 221 221 221 222 222 222 222 221 221 221 221 221 222 222 222 224 225 228
7 8 9 10 10 12 13 14 15 16 16 13 6 353 326 301 286 275 269 258 246 238 231 226 223 222 222 222 222 222 223 223 222 222 221 221 222 223 223 224 226 228 230
9 11 12 13 14 15 17 18 19 21 22 21 18 11 358 336 311 293 283 274 260 247 239 232 226 223 222 222 222 222 223 223 223 223 222 222 222 222 224 225 227 230 231
11 13 15 16 17 18 19 21 22 24 26 27 27 24 17 6 346 321 301 286 274 261 249 240 232 227 223 222 223 223 223 223 223 223 223 223 223 223 225 225 227 229 230
12 15 17 18 19 20 22 23 24 26 28 30 31 32 30 25 15 358 334 308 289 275 262 250 240 232 227 224 223 223 223 223 223 223 223 223 223 224 225 225 226 227 228
14 17 19 20 21 22 24 25 27 28 29 31 32 34 35 35 33 26 14 354 325 296 275 261 248 238 231 226 224 223 223 223 224 224 224 223 223 223 224 224 224 224 224
15 18 20 21 22 23 25 27 28 29 30 31 33 34 35 36 38 37 35 27 12 345 309 278 259 245 235 229 225 223 223 223 224 224 225 224 224 223 223 222 222 222 222
16 18 21 22 23 24 26 28 29 30 31 32 33 33 34 35 36 37 37 37 35 29 13 339 289 258 242 232 227 225 224 223 224 225 225 226 225 225 224 223 223 223 222
17 18 21 22 23 25 27 29 30 32 32 33 33 34 34 35 35 36 37 37 37 36 35 30 16 331 262 240 232 227 225 224 224 224 225 226 227 226 226 226 225 225 225
17 19 20 22 23 25 26 29 31 33 33 34 34 34 34 35 35 36 36 37 37 38 38 38 38 36 25 316 246 234 229 227 226 225 225 226 227 228 228 228 227 227 227
17 19 20 21 23 24 25 27 30 32 33 34 35 35 35 35 35 35 35 36 37 38 38 39 40 41 41 39 29 292 239 232 229 227 227 227 227 228 228 229 229 229 228
17 19 20 21 22 24 25 25 27 30 32 33 34 35 35 35 35 35 35 35 35 36 37 38 39 40 41 42 42 40 30 267 236 231 229 228 228 228 229 229 230 230 230
Height
5500 5489 5477 5466 5455 5444 5435 5426 5419 5414 5412 5411 5413 5415 5416 5417 5419 5421 5424 5427 5432 5437 5443 5449 5456 5462 5470 5478 5486 5496 5507 5519 5532 5545 5557 5570 5579 5589 5599 5607 5616 5624 5633
5492 5480 5468 5456 5444 5434 5424 5415 5407 5401 5397 5396 5397 5399 5402 5405 5408 5411 5414 5418 5422 5427 5433 5438 5444 5450 5455 5461 5468 5476 5487 5498 5511 5524 5536 5549 5560 5572 5581 5590 5599 5607 5616
5484 5471 5458 5446 5434 5423 5413 5404 5396 5389 5384 5381 5381 5383 5386 5390 5395 5399 5403 5407 5412 5417 5422 5427 5432 5437 5442 5447 5452 5459 5468 5479 5490 5503 5516 5529 5541 5553 5562 5572 5580 5590 5600
5476 5462 5449 5437 5425 5414 5403 5393 5385 5378 5372 5368 5366 5367 5370 5374 5380 5386 5391 5396 5401 5406 5411 5416 5420 5424 5428 5432 5437 5443 5451 5461 5473 5485 5497 5509 5521 5533 5544 5553 5562 5572 5583
5468 5455 5442 5430 5418 5406 5395 5385 5376 5368 5362 5357 5354 5353 5355 5358 5364 5370 5377 5383 5388 5394 5398 5403 5407 5411 5414 5417 5421 5428 5437 5448 5459 5470 5481 5493 5503 5515 5527 5536 5545 5555 5566
5461 5448 5435 5423 5412 5401 5389 5378 5368 5359 5352 5346 5343 5341 5341 5343 5348 5354 5363 5369 5375 5381 5386 5391 5395 5399 5403 5406 5410 5417 5426 5437 5447 5457 5467 5478 5487 5499 5511 5521 5529 5539 5551
5455 5442 5430 5418 5406 5394 5382 5371 5360 5350 5342 5336 5332 5329 5329 5330 5333 5339 5348 5355 5361 5368 5373 5379 5384 5389 5393 5397 5402 5408 5417 5426 5436 5445 5454 5463 5473 5485 5497 5507 5514 5522 5534
5449 5436 5424 5412 5400 5387 5375 5363 5351 5340 5332 5325 5321 5318 5317 5317 5320 5325 5332 5341 5348 5354 5361 5367 5373 5378 5383 5388 5394 5400 5407 5416 5425 5434 5442 5451 5460 5470 5481 5491 5501 5510 5520
5444 5432 5420 5407 5394 5381 5367 5354 5341 5330 5320 5313 5309 5306 5305 5306 5308 5311 5317 5326 5334 5341 5348 5355 5362 5368 5374 5380 5386 5392 5398 5406 5414 5423 5432 5441 5450 5460 5469 5478 5487 5496 5504
5440 5427 5414 5401 5387 5373 5358 5343 5329 5316 5306 5300 5297 5295 5294 5294 5296 5298 5303 5312 5321 5328 5335 5342 5350 5357 5364 5370 5377 5384 5390 5397 5405 5413 5422 5431 5441 5450 5459 5467 5476 5485 5493
5436 5423 5409 5395 5380 5365 5349 5332 5315 5301 5291 5286 5284 5284 5284 5284 5285 5288 5291 5299 5307 5314 5321 5329 5337 5345 5353 5360 5368 5375 5382 5389 5396 5404 5413 5422 5431 5440 5448 5456 5465 5474 5482
5434 5420 5406 5390 5375 5359 5342 5322 5303 5288 5278 5274 5273 5273 5274 5275 5276 5278 5281 5286 5293 5301 5308 5316 5325 5333 5341 5349 5357 5365 5373 5381 5389 5396 5404 5413 5422 5430 5438 5446 5454 5463 5471
5433 5419 5404 5387 5371 5354 5336 5316 5296 5280 5270 5266 5264 5265 5266 5267 5269 5270 5272 5276 5282 5288 5296 5305 5314 5322 5330 5338 5346 5354 5363 5371 5379 5387 5395 5403 5412 5420 5428 5436 5444 5452 5460
5434 5419 5403 5387 5371 5353 5334 5314 5294 5277 5267 5262 5260 5260 5260 5261 5263 5264 5266 5269 5272 5278 5286 5294 5302 5311 5319 5327 5335 5343 5352 5360 5369 5377 5385 5394 5402 5410 5418 5426 5434 5442 5449
5435 5421 5406 5390 5373 5355 5336 5316 5296 5279 5267 5261 5258 5257 5257 5258 5258 5260 5260 5263 5265 5269 5276 5283 5291 5300 5308 5316 5324 5332 5340 5349 5357 5366 5374 5383 5391 5399 5407 5415 5422 5430 5437
5438 5424 5409 5393 5377 5359 5341 5322 5303 5285 5272 5263 5259 5256 5256 5256 5256 5257 5257 5259 5260 5263 5267 5273 5281 5288 5297 5305 5313 5321 5329 5337 5345 5354 5362 5370 5379 5387 5395 5403 5410 5418 5425
5440 5426 5411 5396 5380 5363 5348 5331 5314 5297 5281 5269 5262 5258 5256 5255 5255 5255 5255 5256 5257 5258 5261 5265 5271 5278 5286 5294 5302 5310 5318 5326 5334 5342 5350 5358 5366 5374 5382 5390 5398 5406 5413
5443 5429 5415 5399 5384 5368 5354 5339 5324 5308 5293 5280 5270 5262 5258 5256 5254 5254 5253 5254 5254 5255 5256 5258 5262 5268 5275 5283 5291 5300 5308 5316 5323 5330 5338 5346 5354 5362 5370 5378 5385 5393 5401
5447 5433 5419 5404 5390 5376 5362 5348 5334 5320 5306 5293 5281 5271 5264 5259 5256 5254 5252 5252 5251 5251 5252 5253 5255 5259 5265 5272 5280 5288 5297 5305 5312 5320 5327 5334 5342 5349 5357 5365 5373 5380 5388
5451 5437 5424 5411 5398 5385 5371 5358 5344 5331 5319 5307 5295 5284 5275 5267 5261 5257 5253 5251 5249 5248 5248 5248 5249 5252 5256 5261 5269 5277 5285 5293 5301 5309 5316 5324 5331 5338 5346 5353 5361 5369 5377
5455 5443 5430 5418 5406 5394 5381 5367 5354 5342 5330 5319 5308 5298 5288 5279 5271 5264 5258 5253 5249 5247 5245 5244 5245 5246 5248 5252 5258 5265 5273 5281 5290 5298 5306 5313 5320 5328 5335 5343 5350 5358 5366
5460 5448 5436 5425 5414 5402 5390 5377 5365 5353 5341 5330 5320 5310 5301 5291 5282 5274 5266 5260 5254 5248 5245 5242 5241 5241 5243 5245 5249 5254 5261 5269 5278 5286 5294 5302 5309 5317 5325 5332 5340 5348 5355
5465 5454 5443 5432 5422 5411 5399 5388 5376 5364 5353 5342 5331 5321 5312 5303 5294 5285 5277 5269 5262 5255 5249 5244 5241 5240 5240 5241 5243 5247 5252 5258 5266 5273 5281 5289 5297 5305 5313 5321 5329 5337 5345
5470 5460 5450 5440 5430 5419 5408 5397 5386 5375 5364 5354 5343 5333 5324 5314 5305 5297 5288 5280 5273 5265 5258 5252 5246 5242 5240 5240 5241 5242 5245 5249 5255 5261 5269 5276 5284 5292 5300 5309 5317 5325 5333
5474 5465 5456 5447 5437 5427 5417 5407 5396 5386 5376 5366 5355 5346 5336 5326 5317 5308 5300 5292 5284 5277 5269 5262 5256 5250 5246 5243 5241 5241 5242 5244 5247 5251 5256 5263 5270 5278 5286 5295 5303 5312 5320
5479 5470 5462 5453 5444 5434 5425 5415 5405 5395 5386 5376 5367 5357 5348 5339 5330 5321 5312 5304 5296 5288 5281 5274 5267 5261 5255 5251 5247 5244 5242 5241 5242 5244 5247 5252 5257 5264 5272 5280 5288 5297 5306